Regional Weather Roundup
Issued by NWS Wakefield, VA

Home | Current Version | Previous Version | Graphics & Text | Print | Product List | Glossary On
Versions: 1 2 3 4 5 6 7 8 9 10 11 12 13 14 15 16 17 18 19 20 21 22 23 24 25 26 27 28
000
ASUS41 KAKQ 040215
RWRAKQ

REGIONAL WEATHER ROUNDUP
NATIONAL WEATHER SERVICE WAKEFIELD VA
1000 PM EDT TUE MAY 03 2016

Note: "fair" indicates few or no clouds below 12,000 feet with no
significant weather and/or obstructions to visibility. * = Denotes
station may not report precipitation (e.g., rain,snow,etc.),
thunder or fog.

VAZ042-051-052>054-056-040300-
NORTHERN VIRGINIA

CITY           SKY/WX    TMP DP  RH WIND       PRES   REMARKS
WASH NATIONAL  CLOUDY    60  55  83 E9        29.77F
DULLES         CLOUDY    60  57  89 NE7       29.78R
FORT BELVOIR   CLOUDY    60  56  86 NE2       29.76F
QUANTICO       MOCLDY    61  57  87 E10       29.76F
FREDERICKSBRG* NOT AVBL
STAFFORD*      TSTM      59  57  92 E3        29.80R
WARRENTON      CLOUDY    62  56  82 E3        29.77R
CULPEPER*      CLOUDY    63  62  97 S3        29.78R
MANASSAS*      MOCLDY    63  63 100 E3        29.77R
LEESBURG*      LGT RAIN  61  61 100 E5        29.80R
WINCHESTER     CLOUDY    61  59  94 CALM      29.78S
FRONT ROYAL*   CLOUDY    59  59 100 CALM      29.78R
LURAY*         RAIN      59  59 100 CALM      29.81R
$$

VAZ048-049-060>072-079>083-040300-
CENTRAL AND SOUTH CENTRAL VIRGINIA

CITY           SKY/WX    TMP DP  RH WIND       PRES   REMARKS
RICHMOND       FAIR      60  58  92 SE6       29.75R
CHESTERFIELD*  FAIR      59  48  67 S5        29.77R
PETERSBURG*    MOCLDY    62  62 100 CALM      29.76S
HANOVER        FOG       57  56  96 CALM      29.77R VSB 1
TAPPAHANNOCK*  FAIR      60  60 100 CALM      29.75R
QUINTON*       CLOUDY    60  60  98 SE5       29.74R
CHARLOTTSVILLE MOCLDY    61  59  93 CALM      29.77R
GORDONSVILLE*  MOCLDY    60  60  99 CALM      29.77S
ORANGE*        CLOUDY    61  61 100 CALM      29.78F
LOUISA*        LGT RAIN  63  61  94 N3        29.76S
BUMPASS*       CLOUDY    59  59  98 N5        29.78R
FARMVILLE*     CLOUDY    64  64 100 N8        29.74S
CREWE*         CLOUDY    62  62 100 CALM      29.75R
FORT PICKETT*  NOT AVBL
CHASE CITY*    FAIR      63  61  94 CALM      29.75R
CLARKSVILLE*   FAIR      61  61 100 CALM      29.74S
SOUTH HILL*    FAIR      64  64 100 CALM      29.79S
LAWRENCEVILLE* CLOUDY    63  63  97 N3        29.74S
EMPORIA*       MOCLDY    63  63 100 CALM      29.76S
$$

VAZ088>098-040300-
SOUTHEAST VIRGINIA

CITY           SKY/WX    TMP DP  RH WIND       PRES   REMARKS
NORFOLK        LGT RAIN  63  60  90 N9        29.75S
VIRGINIA BEACH TSTM      67  60  78 N12       29.74R
NORFOLK NAVAL  MOCLDY    63  61  93 NE7       29.76R THUNDER
WEST POINT*    FAIR      61  60  96 E6        29.76R
SALUDA*        FAIR      61  60  99 E9        29.75S
NEWPORT NEWS   MOCLDY    62  60  93 NE7       29.76R
LANGLEY AFB    CLOUDY    62  61  96 N6        29.75S
FORT EUSTIS    FAIR      63  59  86 E8        29.73S
WILLIAMSBURG*  FAIR      63  63 100 NE3       29.76R
HR EXEC AP*      N/A     64  61  88 N3        29.76R
FRANKLIN*      CLOUDY    61  60  97 CALM      29.75S
US460-WAKEFLD  FAIR      63  59  87 CALM      29.75F
$$

VAZ020-022-025-037-045-040300-
WEST CENTRAL AND SOUTHWEST VIRGINIA

CITY           SKY/WX    TMP DP  RH WIND       PRES   REMARKS
STAUNTON*      MOCLDY    62  60  93 N3        29.81R
WAYNESBORO*    CLOUDY    61  57  87 CALM      29.79S
HOT SPRINGS VA FAIR      50  46  84 W18G24    29.82F
LYNCHBURG      FAIR      60  57  89 CALM      29.78R
DANVILLE       MOCLDY    62  61  96 CALM      29.75S
SOUTH BOSTON*  FAIR      62  61  96 CALM      29.75R
MARTINSVILLE   MOCLDY    58  58 100 N5        29.81R
ROANOKE        FAIR      62  49  62 N6        29.82R
BLACKSBURG     FAIR      56  48  75 CALM      29.87S
DUBLIN*        FAIR      59  48  67 W9G18     29.85S
MARION*        CLOUDY    56  47  72 CALM      29.89S
HILLSVILLE*    FAIR      56  49  75 NW9       29.84R
RICHLANDS*     CLOUDY    54  33  45 NW6       29.88S
WISE*          CLOUDY    54  43  66 CALM      29.90S
ABINGDON*      MOCLDY    58  47  65 CALM      29.86S
$$

MDZ021>025-VAZ099-100-040300-
SOUTHERN MARYLAND AND THE DELMARVA PENINSULA

CITY           SKY/WX    TMP DP  RH WIND       PRES   REMARKS
PATUXENT RIVER CLOUDY    61  58  90 E7        29.76R
BAY BRIDGE APT NOT AVBL
LEONARDTOWN    CLOUDY    59  57  94 CALM      29.77S
DOVER          CLOUDY    55  55 100 E12       29.79F
GEORGETOWN     CLOUDY    52  50  93 E13       29.80F
EASTON         NOT AVBL
CAMBRIDGE      CLOUDY    55  55 100 E8        29.76R
SALISBURY      CLOUDY    54  53  97 E13       29.75F
OCEAN CITY     CLOUDY    51  51 100 NE12      29.79F
WALLOPS ISLAND CLOUDY    55  54  96 NE17      29.78S
ACCOMACK*      CLOUDY    55  16  21 E13       29.76F
$$

NCZ012>017-030>032-040300-
NORTH CENTRAL AND EASTERN NORTH CAROLINA

CITY           SKY/WX    TMP DP  RH WIND       PRES   REMARKS
ROANOKE RAPIDS FAIR      61  59  94 CALM      29.74F
RALEIGH        TSTM      65  63  93 N3        29.76S
ELIZABETH CITY CLOUDY    69  66  90 S8        29.74F
AHOSKIE*       CLOUDY    69  66  90 CALM      29.76R
EDENTON*       CLOUDY    70  70 100 S10       29.75R
CURRITUCK*     NOT AVBL
KILL DEVIL HLS CLOUDY    68  65  90 SW7       29.76R
MANTEO         NOT AVBL
CAPE HATTERAS  PTCLDY    70  68  93 SW9       29.78R
TARBORO*       FAIR      65  59  81 CALM      29.75S
GOLDSBORO      MOCLDY    67  67  99 SE7       29.74F
WASHINGTON     HVY RAIN  64  63  95 S12       29.77S
GREENVILLE     CLOUDY    64  64 100 S8        29.79F
NEW BERN       PTCLDY    68  66  93 CALM      29.79R
WILMINGTON     CLEAR     70  67  90 S8        29.77F
$$

VAZ048-040300-
ELSEWHERE

CITY           SKY/WX    TMP DP  RH WIND       PRES   REMARKS
HARRISBURG PA  CLOUDY    32  32 100 E9        29.79R
BALTIMORE      CLOUDY    58  53  84 E13       29.78S
ANNAPOLIS      CLOUDY    58  54  86 NE8       29.78R
ANDREWS AFB    CLOUDY    58  55  91 E7        29.76F
PHILADELPHIA   CLOUDY    54  49  83 NE7       29.83S
HENDERSON NC   CLOUDY    64  64 100 CALM      29.75F
GREENSBORO     MOCLDY    64  61  90 W7        29.75R
ROCKY MOUNT    CLOUDY    63  62  97 S3        29.74F
$$

VAZ100-040300-
MARINE

STATION/POSITION TIME  TEMP    WIND        PRES    WAVE   SWELL
                       AIR SEA DIR/SP/G            HT/PER HT/PER
                 (UTC) (F)     (DEG/KT/KT) (MB)    (FT/S) (FT/S)
BRANDYWINE LGT   0100   52                 1009.6R
CAPE MAY NJ      0100   51 59              1009.2F
LEWES DE         0100   52 57              1009.5R
15NM E FENWICK I 0150   50 52              1009.2R   4/ 5
OCEAN-CITY-INLET 0100   52 55              1008.8R
WACHAPREAGUE VA  0100   57 66              1007.1R
THOMAS POINT MD  0200   58 59   60/ 13/ 14 1009.7R
GOOSES REEF MD   0200   59 60   70/ 12/ 14 1009.1R   1/ 3
COVE POINT MD    0100   60                 1007.9R
SOLOMONS ISLAND  0100   61 61                N/A
BISHOPS HEAD MD  0100   60 66              1006.2F
PINEY POINT MD   0100          130/ 12/ 13   N/A
POTOMAC MD       0200   61 62  120/ 12/ 14 1006.0F   1/ 2
CAMBRIDGE MD     0100   59 62              1006.9S
LEWISETTA VA     0100   62 63              1006.8F
RAPPAHANNOCK LGT 0100                      1007.6F
STINGRAY PT      0200   60 62  100/ 17/ 21 1007.6F   2/ 3
YORK RVR RNG VA  0100   62                 1006.7F
YORKTOWN VA      0100   62 64              1007.1R
JAMESTOWN VA     0200   63 68   80/  6/ 12   N/A     0
DOMINION TERM VA 0100   65                 1007.3R
KIPTOPEKE VA     0100      63                N/A
CHES BAY BRIDGE  0100   63 60              1006.7R
CAPE HENRY VA    0100   69                   N/A
CHESAPEAKE LGHT  0100   63     180/ 18/ 18 1007.2R
WILLOUBY STN VA  0100   64                 1008.3R
CAPE HENRY BUOY  0112      60                N/A     3/ 7
CAPE CHARLES BUO 0126      60                N/A     2/ 7   2/ 7
OFFSHORE WE BUOY 0121      57                N/A     4/ 7   2/13
64NM E OF VA BCH 0150   59 54  200/ 10/ 12 1007.7R   4/ 7   3/ 7
44100 DUCK FRF   0124      62                N/A     2/ 8
44056 DUCK FRF   0111      59                N/A     2/10
OREGON INLET NC  0100   70 72              1007.8R
HATTERAS NC      0100   70 69              1007.9S
DIAMOND SHLS NC  0150   74 72  220/ 16/ 19 1008.1R   5/ 6   2/ 8
CAPE LOOKOUT NC  0200   71     220/  9/ 12 1008.2R
$$




USA.gov is the U.S. government's official web portal to all federal, state and local government web resources and services.